When you browse on this site, cookies collect data to enhance your experience and personalize the content and advertising you see.
Visit our Privacy Policy to learn more. By continuing to use the site, you agree to this use of cookies and data.
  • In Sweden
  • List of Countries
  • For 7 days
  • Water Temperature
  • Satellite Maps
  • Weather Map
  • Weather Widgets
  • user-avatar
    Login

    Hourly Weather Arykbalyk

    Today, 23 April, Tuesday

    Time Temperature Precipitation Wind Pressure Humidity
    00:00 +4°C° 0 mm 2 mps 728 mmHg 67%
    01:00 +4°C° 0 mm 2 mps 728 mmHg 70%
    02:00 +3°C° 0 mm 2 mps 728 mmHg 72%
    03:00 +3°C° 0 mm 2 mps 727 mmHg 73%
    04:00 +2°C° 0 mm 2 mps 727 mmHg 73%
    05:00 +2°C° 0 mm 2 mps 727 mmHg 72%
    06:00 +4°C° 0 mm 2 mps 727 mmHg 67%
    07:00 +4°C° 0 mm 3 mps 727 mmHg 62%
    08:00 +5°C° 0 mm 3 mps 727 mmHg 57%
    09:00 +6°C° 0 mm 4 mps 727 mmHg 54%
    10:00 +8°C° 0 mm 4 mps 726 mmHg 51%
    11:00 +10°C° 0 mm 4 mps 726 mmHg 47%
    12:00 +9°C° 0.1 mm 5 mps 726 mmHg 46%
    13:00 +10°C° 0.1 mm 5 mps 726 mmHg 45%
    14:00 +10°C° 0.1 mm 5 mps 726 mmHg 43%
    15:00 +10°C° 0.1 mm 5 mps 725 mmHg 44%
    16:00 +10°C° 0.1 mm 5 mps 725 mmHg 44%
    17:00 +12°C° 0.1 mm 4 mps 725 mmHg 44%
    18:00 +11°C° 0 mm 4 mps 725 mmHg 47%
    19:00 +10°C° 0 mm 3 mps 725 mmHg 49%
    20:00 +9°C° 0 mm 3 mps 725 mmHg 52%
    21:00 +9°C° 0 mm 3 mps 725 mmHg 54%
    22:00 +8°C° 0 mm 3 mps 725 mmHg 55%
    23:00 +7°C° 0 mm 3 mps 725 mmHg 57%

    Tomorrow, 24 April, Wednesday

    Time Temperature Precipitation Wind Pressure Humidity
    00:00 +7°C° 0 mm 3 mps 725 mmHg 59%
    01:00 +7°C° 0 mm 3 mps 724 mmHg 60%
    02:00 +5°C° 0 mm 3 mps 724 mmHg 62%
    03:00 +5°C° 0 mm 3 mps 724 mmHg 64%
    04:00 +4°C° 0 mm 3 mps 724 mmHg 66%
    05:00 +4°C° 0 mm 3 mps 723 mmHg 69%
    06:00 +5°C° 0 mm 3 mps 724 mmHg 64%
    07:00 +7°C° 0 mm 4 mps 724 mmHg 60%
    08:00 +8°C° 0 mm 4 mps 724 mmHg 55%
    09:00 +10°C° 0 mm 5 mps 724 mmHg 49%
    10:00 +12°C° 0 mm 5 mps 724 mmHg 43%
    11:00 +13°C° 0 mm 6 mps 724 mmHg 37%
    12:00 +13°C° 0.1 mm 6 mps 723 mmHg 38%
    13:00 +13°C° 0.1 mm 6 mps 723 mmHg 39%
    14:00 +14°C° 0.1 mm 6 mps 723 mmHg 40%
    15:00 +13°C° 0.6 mm 6 mps 722 mmHg 43%
    16:00 +11°C° 0.6 mm 6 mps 722 mmHg 45%
    17:00 +11°C° 0.6 mm 6 mps 722 mmHg 48%
    18:00 +10°C° 0.3 mm 5 mps 722 mmHg 53%
    19:00 +10°C° 0.3 mm 4 mps 722 mmHg 57%
    20:00 +9°C° 0.3 mm 3 mps 722 mmHg 62%
    21:00 +8°C° 0.1 mm 3 mps 722 mmHg 66%
    22:00 +8°C° 0.1 mm 3 mps 721 mmHg 70%
    23:00 +7°C° 0.1 mm 2 mps 721 mmHg 73%

    Day after tomorrow, 25 April, Thursday

    Time Temperature Precipitation Wind Pressure Humidity
    00:00 +6°C° 0.1 mm 2 mps 721 mmHg 74%
    01:00 +6°C° 0.1 mm 2 mps 721 mmHg 76%
    02:00 +5°C° 0.1 mm 2 mps 721 mmHg 77%
    03:00 +5°C° 0 mm 2 mps 720 mmHg 78%
    04:00 +4°C° 0 mm 2 mps 720 mmHg 79%
    05:00 +4°C° 0 mm 2 mps 720 mmHg 79%
    06:00 +4°C° 0.1 mm 3 mps 720 mmHg 74%
    07:00 +5°C° 0.1 mm 3 mps 720 mmHg 68%
    08:00 +6°C° 0.1 mm 4 mps 720 mmHg 62%
    09:00 +6°C° 0.2 mm 5 mps 720 mmHg 60%
    10:00 +7°C° 0.2 mm 5 mps 720 mmHg 59%
    11:00 +8°C° 0.2 mm 6 mps 719 mmHg 57%
    12:00 +7°C° 0.5 mm 6 mps 719 mmHg 62%
    13:00 +7°C° 0.5 mm 6 mps 719 mmHg 66%
    14:00 +5°C° 0.5 mm 6 mps 719 mmHg 71%
    15:00 +7°C° 0.3 mm 6 mps 719 mmHg 67%
    16:00 +7°C° 0.3 mm 6 mps 719 mmHg 64%
    17:00 +7°C° 0.3 mm 6 mps 719 mmHg 60%
    18:00 +5°C° 0.1 mm 6 mps 720 mmHg 64%
    19:00 +5°C° 0.1 mm 6 mps 720 mmHg 69%
    20:00 +4°C° 0.1 mm 6 mps 720 mmHg 73%
    21:00 +3°C° 0 mm 6 mps 721 mmHg 76%
    22:00 +2°C° 0 mm 6 mps 721 mmHg 80%
    23:00 +1°C° 0 mm 6 mps 721 mmHg 83%

    26 April, Friday

    Time Temperature Precipitation Wind Pressure Humidity
    00:00 -1°C° 0 mm 6 mps 722 mmHg 82%
    01:00 0°C° 0 mm 5 mps 722 mmHg 80%
    02:00 -1°C° 0 mm 5 mps 722 mmHg 78%
    03:00 -1°C° 0 mm 4 mps 722 mmHg 77%
    04:00 -2°C° 0 mm 4 mps 723 mmHg 76%
    05:00 -2°C° 0 mm 3 mps 723 mmHg 75%
    06:00 -1°C° 0 mm 3 mps 723 mmHg 68%
    07:00 0°C° 0 mm 3 mps 724 mmHg 60%
    08:00 0°C° 0 mm 3 mps 724 mmHg 53%
    09:00 +1°C° 0 mm 3 mps 724 mmHg 48%
    10:00 +2°C° 0 mm 3 mps 724 mmHg 43%
    11:00 +4°C° 0 mm 2 mps 725 mmHg 37%
    12:00 +5°C° 0 mm 2 mps 724 mmHg 34%
    13:00 +6°C° 0 mm 2 mps 724 mmHg 32%
    14:00 +7°C° 0 mm 2 mps 724 mmHg 29%
    15:00 +7°C° 0 mm 2 mps 724 mmHg 28%
    16:00 +8°C° 0 mm 3 mps 723 mmHg 27%
    17:00 +8°C° 0 mm 3 mps 723 mmHg 27%
    18:00 +7°C° 0.1 mm 3 mps 723 mmHg 35%
    19:00 +6°C° 0.1 mm 4 mps 723 mmHg 43%
    20:00 +5°C° 0.1 mm 4 mps 723 mmHg 51%
    21:00 +4°C° 0.1 mm 4 mps 723 mmHg 57%
    22:00 +4°C° 0.1 mm 4 mps 723 mmHg 64%
    23:00 +3°C° 0.1 mm 3 mps 723 mmHg 70%

    27 April, Saturday

    Time Temperature Precipitation Wind Pressure Humidity
    00:00 +1°C° 0 mm 4 mps 724 mmHg 73%
    01:00 0°C° 0 mm 5 mps 724 mmHg 77%
    02:00 -3°C° 0 mm 6 mps 724 mmHg 80%
    03:00 -3°C° 0 mm 6 mps 724 mmHg 76%
    04:00 -4°C° 0 mm 5 mps 725 mmHg 72%
    05:00 -5°C° 0 mm 5 mps 726 mmHg 67%
    06:00 -5°C° 0 mm 5 mps 726 mmHg 60%
    07:00 -4°C° 0 mm 5 mps 727 mmHg 52%
    08:00 -4°C° 0 mm 5 mps 728 mmHg 44%
    09:00 -2°C° 0 mm 5 mps 728 mmHg 40%
    10:00 -1°C° 0 mm 5 mps 728 mmHg 37%
    11:00 0°C° 0 mm 5 mps 729 mmHg 33%
    12:00 0°C° 0 mm 5 mps 729 mmHg 32%
    13:00 +1°C° 0 mm 5 mps 729 mmHg 32%
    14:00 +3°C° 0 mm 4 mps 729 mmHg 31%
    15:00 +3°C° 0 mm 4 mps 729 mmHg 31%
    16:00 +4°C° 0 mm 4 mps 729 mmHg 31%
    17:00 +4°C° 0 mm 4 mps 729 mmHg 32%
    18:00 +4°C° 0 mm 4 mps 728 mmHg 35%
    19:00 +3°C° 0 mm 4 mps 728 mmHg 38%
    20:00 +3°C° 0 mm 4 mps 728 mmHg 42%
    21:00 +3°C° 0 mm 4 mps 728 mmHg 43%
    22:00 +1°C° 0 mm 5 mps 728 mmHg 45%
    23:00 +1°C° 0 mm 6 mps 728 mmHg 47%

    28 April, Sunday

    Time Temperature Precipitation Wind Pressure Humidity
    00:00 +2°C° 0 mm 6 mps 727 mmHg 48%
    01:00 +2°C° 0 mm 7 mps 727 mmHg 49%
    02:00 +2°C° 0 mm 7 mps 726 mmHg 50%
    03:00 +1°C° 0 mm 8 mps 726 mmHg 51%
    04:00 +1°C° 0 mm 8 mps 725 mmHg 52%
    05:00 +1°C° 0 mm 8 mps 725 mmHg 53%
    06:00 +2°C° 0 mm 9 mps 725 mmHg 52%
    07:00 +5°C° 0 mm 9 mps 724 mmHg 51%
    08:00 +6°C° 0 mm 10 mps 724 mmHg 51%
    09:00 +7°C° 0 mm 11 mps 724 mmHg 48%
    10:00 +9°C° 0 mm 12 mps 723 mmHg 46%
    11:00 +12°C° 0 mm 12 mps 723 mmHg 44%
    12:00 +10°C° 0.1 mm 12 mps 722 mmHg 46%
    13:00 +10°C° 0.1 mm 12 mps 722 mmHg 48%
    14:00 +9°C° 0.1 mm 13 mps 721 mmHg 49%
    15:00 +10°C° 0 mm 12 mps 720 mmHg 52%
    16:00 +11°C° 0 mm 11 mps 720 mmHg 54%
    17:00 +12°C° 0 mm 10 mps 719 mmHg 57%
    18:00 +11°C° 1.7 mm 10 mps 718 mmHg 65%
    19:00 +9°C° 1.7 mm 10 mps 718 mmHg 74%
    20:00 +9°C° 1.7 mm 11 mps 718 mmHg 82%
    21:00 +9°C° 0.3 mm 10 mps 718 mmHg 82%
    22:00 +10°C° 0.3 mm 9 mps 718 mmHg 82%
    23:00 +10°C° 0.3 mm 8 mps 718 mmHg 82%
    Show more